Uitslag Triatlon van Vlaanderen top 3

# Naam Totaal
1 Aernouts Bart 01:59:13 87.87
2 woestenborghs rob 02:02:04 85.27
3 Van Riel Marten 02:03:02 84.79
4 Verstraete Maxime 02:03:09 84.74
5 HELIN Pieter 02:06:38 83.02
6 Cottyn Gilles 02:10:22 81.19
7 Bonami Hannes 02:10:52 80.94
8 Demars Jeremy 02:11:31 80.62
9 Cruyt Jeroen 02:11:48 80.49
10 Demeulemeester Stijn 02:11:49 80.48
11 De Henau Jan 02:12:07 80.33
12 Decoene Bert 02:12:48 79.99
13 Lagae Korneel 02:13:50 79.49
14 Desmedt Kristof 02:13:52 79.47
15 Verlet Benjamin 02:14:11 79.31
16 Laevens Bram 02:14:12 79.31
17 Menschaert Karel 02:14:40 79.08
18 Clam Simon 02:15:32 78.65
19 De Gendt Ruben 02:15:47 78.53
20 Vervisch Michiel 02:15:49 78.51
21 Beckers Wouter 02:17:00 77.93
22 ameye joeri 02:18:14 77.32
23 Zwaenepoel Jo 02:18:18 77.29
24 Vincke Mike 02:18:35 77.15
25 Tops Dimitri 02:18:59 76.95
26 Marchand Kurt 02:19:01 76.94
27 Coysman Joke 02:19:40 80.40
28 Tanghe Tom 02:19:44 76.59
29 Omey Henk 02:19:46 76.57
30 Thiers Louis 02:19:50 76.54
31 De Boeck Lennart 02:19:55 76.50
32 Deman Kevin 02:20:10 76.37
33 Soetaert Ju?rgen 02:20:37 76.15
34 Danneels Glenn 02:21:16 75.83
35 Van Den Berge Jo 02:21:21 75.79
36 Gouwy Dario 02:22:07 75.41
37 Devos Wim 02:22:09 75.40
38 Spruytte Stefaan 02:22:19 75.32
39 Degain Dave 02:22:23 75.28
40 Goethals Ward 02:22:46 75.10
41 Vandenbussche 02:22:50 75.06
42 CARION Thibault 02:22:54 75.03
43 Boudry Bruno 02:23:37 74.68
44 Perneel Guillaume 02:24:01 74.48
45 Van Der Stockt 02:24:10 74.41
46 Van De Mergel Jens 02:24:20 74.33
47 Vercruysse Jelle 02:24:25 74.28
48 Oprins Jimmy 02:24:31 74.23
49 Claeys Lorenz 02:25:01 73.99
50 Geerts Pieter 02:25:13 73.89
51 Beirnaert Jürgen 02:25:14 73.88
52 Bouche Joel 02:25:20 73.83
53 D'hoossche Tom 02:25:41 73.66
54 Lauwers Kenneth 02:26:12 73.41
55 Naessens Dees 02:26:15 73.38
56 Bruggeman Pieter 02:27:02 73.00
57 Bronkart Alain 02:27:14 72.90
58 Van Steenberge Stefan 02:27:14 72.90
59 Van Dyck Peter 02:27:28 72.79
60 Appels Alexander 02:28:28 72.29
61 Vandamme Benjamin 02:28:55 72.07
62 Heynderycx Wouter 02:28:57 72.06
63 Dhont Sebastiaan 02:28:59 72.04
64 Verroken Jacob 02:29:12 71.93
65 Van Dessel Steven 02:29:13 71.92
66 De Dycker Tony 02:29:19 71.88
67 Vanhaelst Frederik 02:29:23 71.84
68 Callens Bart 02:29:37 71.73
69 Van De Velde Wart 02:29:40 71.70
70 Steven Van Dorpe 02:29:48 71.64
71 Vanmarcke Stan 02:29:56 71.57
72 Bruggeman Edwin 02:30:08 71.47
73 Van Den Broeck Walter 02:30:15 71.42
74 Vandeputte Angelo 02:30:24 71.34
75 Van Renterghem Tom 02:30:24 71.34
76 Gillegot-vergauwen 02:30:29 74.46
77 Devos Caroline 02:30:33 74.43
78 Sonke Robert 02:30:35 71.25
79 Dekoker Stefaan 02:30:37 71.24
80 Cuypers Peter 02:30:38 71.23
81 Melon Patrick 02:30:57 71.07
82 Sanders Sören 02:31:05 71.01
83 Coeck Inge 02:31:09 74.17
84 Costeur Romain 02:31:17 70.91
85 Duhayon Kris 02:31:24 70.85
86 Verbeke Mike 02:31:28 70.82
87 Daneels Evelyn 02:31:41 73.93
88 Demeulemeester Bernard 02:31:47 70.66
89 Carrette Pascal 02:32:05 70.52
90 Verschueren Thomas 02:32:11 70.47
91 Gregoire Valerie 02:32:12 73.71
92 Brusselman Ruben 02:32:20 70.39
93 Blomme Marieke 02:32:31 73.57
94 Schepens Joeri 02:32:39 70.24
95 Martele Yves 02:32:39 70.24
96 Van Loon Maarten 02:32:41 70.22
97 Servaege Vincent 02:32:45 70.19
98 De Rouck Peter 02:32:57 70.09
99 Deroeck Robin 02:33:02 70.05
100 Devos Ephrem 02:33:03 70.04
101 Vercruysse Didier 02:33:22 69.89
102 Hoornaert Bart 02:33:23 69.88
103 De Laere Stan 02:33:25 69.86
104 Verliefde Regis 02:33:26 69.85
105 De Block Gino 02:33:33 69.80
106 Dull Georg 02:33:39 69.75
107 Ghysens Dimitri 02:34:25 69.37
108 D'haene Gert-Jan 02:34:34 69.30
109 Vandenbroucke Louise 02:34:36 72.66
110 De Staercke Donaat 02:34:52 69.15
111 Uyttersprot Ken 02:35:03 69.06
112 Delmelle Ludo 02:35:03 69.06
113 Weemaes Tim 02:35:12 68.98
114 Christiaens Filip 02:35:15 68.96
115 Dubois Gildas 02:35:23 68.89
116 De Coeyer Nico 02:35:31 68.83
117 Beyers Gert 02:35:51 68.66
118 Coppens Patrick 02:35:54 68.64
119 Bisaerts Tim 02:35:57 68.62
120 Roels Bruno 02:36:10 68.51
121 De Vriese Marc 02:36:11 68.50
122 D'hooge Michael 02:36:12 68.49
123 De Decker Bart 02:36:27 68.37
124 Kindt Servaas 02:36:28 68.36
125 Malfait Wim 02:36:39 68.27
126 Sas Tom 02:36:51 68.17
127 Demiddel Ken 02:37:01 68.09
128 Cornelis Olivier 02:37:03 68.07
129 Van Den Bossche Mathieu 02:37:04 68.07
130 De Baets Kevin 02:37:06 68.05
131 Roberts Owyn 02:37:08 68.03
132 Verheyden Walter 02:37:14 67.98
133 Verhoeyen Klaus 02:37:33 67.83
134 Leuwers Peter 02:37:33 67.83
135 Meert Filip 02:37:38 67.79
136 Van Der Massen Luc 02:37:42 67.76
137 Vekemans Bert 02:37:47 67.71
138 Delvoy Joeri 02:37:49 67.70
139 Talpe Tony 02:37:58 67.62
140 De Graeve Geert 02:38:02 67.59
141 Himschoot Frederic 02:38:12 67.51
142 Roman Dieter 02:38:30 67.36
143 Vogelaers Gert 02:38:41 67.27
144 Maes Dimitri 02:38:46 67.23
145 Verscheure Patrick 02:38:58 67.13
146 Lamiroy Lander 02:39:14 67.00
147 Tysmans Harry 02:39:15 66.99
148 Geeraert Michael 02:39:16 66.99
149 De Kegel Sam 02:40:01 66.62
150 Van Limbergen Johan 02:40:01 66.62
151 De Pril Jorn 02:40:02 66.61
152 Meire Kathleen 02:40:10 70.22
153 Peeters Michel 02:40:16 66.49
154 Ryckewaert Ruben 02:40:24 66.43
155 Coussement Tom 02:40:27 66.40
156 Dhaenens Wouter 02:40:29 66.39
157 De Potter Christophe 02:40:35 66.34
158 Bonamie Thomas 02:40:36 66.33
159 Biesemans Jeroen 02:40:42 66.28
160 Casier Sammy 02:40:49 66.22
161 Pattyn Wouter 02:40:54 66.18
162 Fonck Jochen 02:40:56 66.17
163 Boon Dimitri 02:40:56 66.17
164 HELLIN Jean-francois 02:40:56 66.17
165 De Ro Wouter 02:41:19 65.98
166 Lauwers Frank 02:41:20 65.97
167 De Meyer Dominique 02:41:34 65.85
168 Declerck Nico 02:41:34 65.85
169 Pieters Cindy 02:41:40 69.56
170 Jacobs Ken 02:41:40 65.81
171 LABENS Cedric 02:41:42 65.79
172 De Vreese Kurt 02:41:48 65.74
173 Maes Sven 02:41:52 65.71
174 Peter Peirens 02:42:02 65.63
175 Vanderhaegen Pieter 02:42:05 65.60
176 Porrez Jan 02:42:11 65.55
177 Audenaert Dominique 02:42:28 65.41
178 Denolf Karl 02:42:29 65.40
179 Boone Bruno 02:42:29 65.40
180 rasschaert walter 02:42:36 65.35
181 CAPIAU Maarten 02:42:36 65.35
182 Aerts Erik 02:42:39 65.32
183 Janssens Evelien 02:42:54 69.02
184 Dupon Kristof 02:42:55 65.19
185 De Boever Jurgen 02:43:04 65.12
186 Rangan Giancarlo 02:43:06 65.10
187 Kazimoto Jonathan 02:43:10 65.07
188 Vandevoorde Emilie 02:43:16 68.86
189 De Meyer Brecht 02:43:20 64.99
190 Devilder Patrick 02:43:26 64.94
191 Van Den Berghe Tim 02:43:27 64.93
192 Dewulf Davy 02:43:28 64.92
193 Neyens Hilde 02:43:30 68.76
194 RONSSE Dieter 02:43:31 64.90
195 Strosse Stijn 02:43:42 64.81
196 De Bleser Rudolf 02:43:55 64.70
197 Buysse Yves 02:44:05 64.62
198 Martens Floor 02:44:12 68.45
199 Degroote Filip 02:44:18 64.51
200 Youri Groosman 02:44:19 64.50
201 Desmet Stefan 02:44:20 64.49
202 VAN ROBBROECK Matthias 02:44:22 64.48
203 Henrist Jean 02:44:23 64.47
204 Pattyn Hein 02:44:30 64.41
205 Loncke Pascal 02:45:20 64.00
206 Slock Pascal 02:45:24 63.97
207 Costeur Christophe 02:45:29 63.93
208 Foucquaert Bart 02:45:41 63.83
209 De Ranter Stijn 02:45:43 63.82
210 Van Raemdonck Michiel 02:45:45 63.80
211 Note Danny 02:45:54 63.72
212 Verdonck Joyce 02:46:02 67.65
213 Wyckaert Johan 02:46:02 63.66
214 Ossareh Shahin 02:46:07 63.62
215 Desimpel Pieter 02:46:24 63.48
216 Le Roy Filip 02:46:40 63.35
217 Devos Damien 02:46:41 63.34
218 Sabbe Luc 02:46:59 63.19
219 Carmois Sebastien 02:47:05 63.14
220 Tanghe Filip 02:47:09 63.11
221 Keirsebilck David 02:47:12 63.09
222 Steenhaut Hans 02:47:27 62.96
223 Osselaer Donald 02:47:59 62.70
224 Tempelaere Tineke 02:48:17 66.66
225 Vandepitte Marnix 02:48:38 62.38
226 Ossieur Romain 02:48:39 62.37
227 Schotte Michael 02:48:49 62.29
228 De Clercq Kurt 02:49:31 61.95
229 De Craene Stefanie 02:49:38 66.07
230 Vanhoucke Jeffrey 02:49:43 61.85
231 Daneels Wouter 02:49:56 61.74
232 Boone Brecht 02:50:43 61.36
233 Lagae Elodie 02:50:49 65.55
234 Quidè Björn 02:50:58 61.23
235 Gasthuys Lode 02:51:11 61.13
236 Parmentier Karel 02:51:26 61.01
237 Steven Watson 02:51:47 60.83
238 Decock Willem 02:51:51 60.80
239 Ramboer Filip 02:52:06 60.68
240 Van De Velde Haike 02:52:14 64.93
241 Vande Kerckhove Peter 02:52:18 60.58
242 Laforce Jeroen 02:52:24 60.53
243 Van Gorp Filip 02:52:41 60.39
244 Van Osselaer Jan 02:53:08 60.17
245 De Baets Soetkin 02:53:37 64.32
246 De Maeght Jan 02:54:14 59.63
247 Vanhuysse Caroline 02:54:20 64.01
248 Wauters Wim 02:54:42 59.40
249 Willemssens Didier 02:54:47 59.36
250 Rousseau Yannick 02:54:47 59.36
251 Velghe Thibault 02:54:51 59.33
252 Nachtergaele Thibault 02:54:52 59.32
253 Soeters Evi 02:55:04 63.69
254 De Meulenaere Patrick 02:56:06 58.71
255 Vrehen Guusje 02:56:21 63.12
256 Van Wayenbergh Kurt 02:56:22 58.58
257 Van Damme Ben 02:56:30 58.51
258 Dedecker Koen 02:56:34 58.48
259 Vande Vyvere Dick 02:56:35 58.47
260 Vermeiren Lieven 02:56:35 58.47
261 Maerten Quentin 02:57:03 58.24
262 Liviau Ruth 02:57:06 62.80
263 Geudens Jan 02:57:13 58.16
264 Lemeire Jos 02:57:15 58.15
265 Haverbeke Steven 02:57:29 58.03
266 Nollet Cindy 02:57:29 62.63
267 DE PREZ Marijke 02:57:33 62.60
268 Roberts Tanto 02:57:46 57.89
269 Pattyn Jeroen 02:57:57 57.80
270 Wulteputte Johan 02:58:28 57.55
271 Bengtsen Casper 02:58:31 57.52
272 Wouters Yann 02:58:33 57.51
273 Marchand Marijn 02:58:53 57.34
274 Nottebaert Jean-baptiste 02:59:24 57.09
275 Cokelaere Johan 03:00:02 56.78
276 Vanluchene Nele 03:00:30 61.31
277 Labarque Stif 03:01:02 56.29
278 Neyt Sara 03:01:06 61.04
279 Vercleyen Miguel 03:01:16 56.17
280 De Koninck Patrick 03:01:30 56.06
281 Dekeyser Stijn 03:02:55 55.36
282 Blommaert Vincent 03:04:04 54.80
283 Raes Annelies 03:04:25 59.59
284 Wannyn Geert 03:04:54 54.39
285 Ronsmans Tim 03:05:00 54.34
286 Lamiroy Ineke 03:05:01 59.33
287 De Coster Michel 03:06:07 53.79
288 Decrock Pedro 03:06:36 53.55
289 Vanleeuw Isabelle 03:06:42 58.59
290 Delahaye Daniel 03:07:17 53.21
291 Delahaye Daniel 03:07:45 52.99
292 Uvin Pieter 03:08:33 52.59
293 Vandendriessche Saartje 03:08:57 57.60
294 Dillen Gino 03:09:16 52.24
295 Meurisse Luc 03:10:52 51.45
296 Van Sweevelt Steven 03:12:02 50.88
297 Van Loon Tim 03:14:21 49.74
298 Van Strydonck Jan 03:15:27 49.20
299 Godderis Luc 03:17:42 48.10
300 Lenssens Charlotte 03:18:05 53.60
301 Desloover Yvan 03:18:34 47.67
302 Nelis Kristof 03:19:30 47.21
303 Van Zele Els 03:20:09 52.69
304 Catry Pierrot 03:20:45 46.60
305 pijnacker maarten 03:24:45 44.13
306 Catry Veerle 03:28:55 48.85
307 Sticker Margot 03:30:56 47.97
308 Jorgensen Majke 03:39:32 43.70

Reacties

  • Nog geen reacties beschikbaar